CAPE
0 0 0 0 0 0 0 0 0 0 0 0 0 0 0 908 1239 1244 1183 1218 1244 1207 1137 1059 1225 1129 951 735 803 664 151 62 2 0 0 0 0 0 14 29 59 296 547 449
0 0 0 0 0 0 0 0 0 0 0 0 0 0 0 890 1192 1240 1208 1148 1235 1154 1190 1423 1032 963 799 754 731 503 259 33 0 0 0 0 12 11 5 23 76 288 427 325
0 0 0 0 0 0 0 0 0 0 0 0 0 0 0 3 32 152 1261 1151 1177 1212 1261 1298 1200 907 862 798 520 331 86 0 0 0 0 4 12 21 101 79 48 117 147 109
0 0 0 0 0 0 0 0 0 0 0 0 0 0 0 0 0 331 882 1301 1298 1181 1177 1202 1258 893 960 882 442 250 6 0 0 0 0 0 16 59 16 38 35 16 1 0
0 0 0 0 0 0 0 0 0 0 0 0 0 0 0 0 105 748 1115 1111 1181 1190 1260 1385 1538 982 1017 936 781 461 12 0 0 0 0 0 2 46 55 41 21 0 0 0
0 0 0 0 0 0 0 0 0 0 0 0 0 0 0 0 0 0 1310 1232 1286 1345 1548 1676 1761 1170 1050 971 777 341 8 0 0 12 17 10 401 148 82 18 0 0 0 0
0 0 0 0 0 0 0 0 0 0 0 0 0 0 0 0 0 0 350 1512 1518 1575 1563 1879 1934 1488 1031 853 496 128 2 0 4 135 211 404 473 95 49 0 0 0 0 0
0 0 0 0 0 0 0 0 0 0 0 0 0 0 0 0 0 195 129 1390 1755 1625 1465 1957 1971 1685 1150 782 388 146 7 0 0 88 311 526 191 76 1 0 0 0 0 0
0 0 0 0 0 0 0 0 0 0 0 0 0 0 0 1 358 351 1280 1891 1957 1704 1468 1897 1948 1807 1347 1050 686 511 94 234 162 220 511 275 119 45 0 0 0 0 0 0
0 0 0 0 0 0 0 0 0 0 0 0 0 0 0 93 329 150 1399 1313 1471 1460 1418 1578 1742 1773 1857 1564 1448 1363 976 1030 850 508 213 121 107 10 0 0 0 0 0 0
0 0 0 0 0 0 0 0 0 0 0 0 0 0 0 3 0 68 476 650 915 1311 1422 1314 1341 1362 1765 1516 1512 1385 914 552 230 193 101 106 70 0 0 0 0 0 0 0
0 0 0 0 0 0 0 0 0 0 0 0 0 0 0 0 0 4 78 223 142 341 1060 1034 946 1063 1575 1516 1283 608 807 460 180 124 68 92 15 0 0 0 0 0 0 0
0 0 0 0 0 0 0 0 0 0 0 0 0 0 0 3 6 2 0 144 177 183 367 874 822 851 1326 1156 648 532 384 127 84 151 90 109 46 0 0 0 0 0 0 0
0 0 0 0 0 0 0 0 0 0 0 0 0 0 0 6 53 7 0 0 3 2 417 723 704 594 813 565 447 158 40 0 76 205 101 118 40 0 0 0 0 0 0 0
0 0 0 0 0 0 0 0 0 0 0 0 0 0 0 0 0 0 0 0 9 17 915 719 582 389 185 100 107 154 129 0 147 317 148 54 1 0 0 0 0 0 0 0
0 0 0 0 0 0 0 0 0 0 0 0 0 0 0 0 0 0 0 0 105 105 261 879 609 266 37 46 1 96 198 188 347 449 261 60 4 0 0 0 0 0 0 0
0 0 0 0 0 0 0 0 12 213 53 0 0 0 0 52 87 23 1 5 41 1 161 665 738 309 16 80 62 107 133 250 396 543 147 84 37 4 0 0 0 0 0 0
5 0 0 6 0 0 0 260 99 251 224 53 14 0 0 42 117 143 27 1 399 1052 831 299 801 309 1 37 43 29 79 238 315 431 179 119 93 64 17 17 1 0 0 0
0 0 0 0 0 0 131 368 260 120 98 186 60 200 89 242 80 0 0 316 820 760 249 592 764 207 5 21 6 105 230 489 377 499 271 203 201 125 52 41 4 0 0 0
0 0 0 0 5 0 0 8 237 32 73 70 340 298 156 271 152 72 96 744 556 125 47 189 312 119 46 18 70 119 242 281 145 260 375 192 152 17 70 11 5 1 0 0
0 0 0 0 0 0 0 45 202 27 1 63 326 375 341 94 0 556 460 300 63 8 3 16 4 0 41 11 28 66 2 1 0 0 1 1 1 86 47 2 1 1 0 0
0 0 0 0 0 0 340 61 1 0 0 16 296 341 54 38 306 242 191 80 1 2 2 1 0 0 1 0 0 0 0 1 4 8 1 2 0 1 43 1 1 0 0 0
0 0 0 0 0 12 500 705 672 110 434 300 61 20 31 240 360 186 32 1 1 2 1 1 0 0 0 0 0 1 4 2 2 1 1 3 1 0 1 1 4 4 0 0
0 0 4 235 272 599 297 190 409 847 1065 453 77 118 40 219 184 9 1 1 1 1 0 0 0 0 0 0 0 0 1 1 0 1 1 1 0 3 0 1 1 1 0 0
0 0 51 20 144 194 103 149 241 847 956 899 769 501 330 291 76 0 0 1 1 1 0 0 0 1 1 0 0 1 0 0 0 0 0 0 0 0 0 0 0 0 0 0
0 0 11 44 3 32 48 13 439 558 1033 898 699 491 354 140 61 12 0 0 0 0 0 0 0 0 0 0 0 0 0 0 0 0 0 0 1 1 0 0 0 0 0 0
CIN
0 0 0 0 0 0 0 0 0 0 0 0 0 0 0 -375 -328 -350 -371 -372 -354 -329 -350 -395 -359 -353 -402 -398 -311 -315 -490 -473 -103 0 0 0 0 -255 -283 -227 -191 -168 -148 -170
0 0 0 0 0 0 0 0 0 0 0 0 0 0 0 -331 -308 -327 -368 -399 -359 -378 -384 -425 -450 -419 -453 -435 -392 -386 -427 -433 0 0 0 0 -246 -297 -214 -232 -207 -165 -153 -147
0 0 0 0 0 0 0 0 0 0 0 0 0 0 0 -59 -358 -228 -363 -367 -346 -360 -356 -433 -435 -448 -430 -426 -477 -511 -554 0 0 0 0 -323 -364 -332 -210 -214 -232 -209 -176 -154
0 0 0 0 0 0 0 0 0 0 0 0 0 0 0 0 0 -365 -448 -328 -304 -364 -412 -453 -458 -471 -451 -421 -516 -549 -510 0 0 0 0 -223 -343 -255 -192 -247 -236 -203 -25 0
0 0 0 0 0 0 0 0 0 0 0 0 0 0 0 0 -192 -335 -428 -410 -353 -404 -427 -429 -414 -498 -445 -431 -424 -489 -508 0 0 0 0 0 -23 -346 -290 -275 -249 0 0 0
0 0 0 0 0 0 0 0 0 0 0 0 0 0 0 0 0 0 -320 -373 -380 -437 -448 -433 -363 -435 -394 -452 -437 -554 -712 0 0 -522 -400 -150 -189 -259 -304 -347 0 0 0 0
0 0 0 0 0 0 0 0 0 0 0 0 0 0 0 0 0 0 -394 -303 -368 -404 -467 -403 -358 -348 -435 -449 -500 -626 -547 0 -185 -427 -366 -307 -256 -308 -324 0 0 0 0 0
0 0 0 0 0 0 0 0 0 0 0 0 0 0 0 0 -328 -593 -433 -353 -350 -422 -471 -365 -352 -369 -403 -445 -535 -611 -530 0 0 -500 -337 -263 -404 -417 -34 0 0 0 0 0
0 0 0 0 0 0 0 0 0 0 0 0 0 0 0 -14 -362 -545 -440 -345 -359 -420 -471 -400 -357 -329 -319 -352 -419 -452 -619 -473 -460 -385 -300 -361 -385 -425 0 0 0 0 0 0
0 0 0 0 0 0 0 0 0 0 0 0 0 0 0 -189 -192 -495 -362 -423 -426 -448 -464 -417 -358 -306 -226 -196 -258 -234 -228 -161 -173 -215 -278 -339 -340 -368 0 0 0 0 0 0
0 0 0 0 0 0 0 0 0 0 0 0 0 0 0 -55 0 -502 -545 -560 -544 -453 -403 -432 -415 -325 -199 -197 -235 -196 -172 -187 -184 -153 -201 -274 -354 0 0 0 0 0 0 0
0 0 0 0 0 0 0 0 0 0 0 0 0 0 0 0 0 -677 -673 -620 -695 -658 -456 -470 -456 -347 -197 -173 -211 -291 -163 -133 -94 -50 -175 -238 -328 0 0 0 0 0 0 0
0 0 0 0 0 0 0 0 0 0 0 0 0 0 0 -156 -843 -169 0 -694 -732 -730 -595 -446 -436 -347 -220 -225 -301 -292 -254 -267 -184 -171 -256 -255 -346 0 0 0 0 0 0 0
0 0 0 0 0 0 0 0 0 0 0 0 0 0 0 -382 -534 -397 0 0 -566 -460 -605 -478 -414 -386 -298 -360 -331 -429 -536 0 -302 -150 -262 -268 -344 0 0 0 0 0 0 0
0 0 0 0 0 0 0 0 0 0 0 0 0 0 0 0 0 0 0 -201 -734 -713 -441 -444 -426 -413 -490 -465 -437 -342 -381 0 -296 -178 -238 -309 -49 0 0 0 0 0 0 0
0 0 0 0 0 0 0 0 0 0 0 0 0 0 0 0 0 0 0 -5 -632 -588 -511 -365 -380 -448 -514 -535 -155 -392 -248 -196 -175 -150 -190 -283 -332 0 0 0 0 0 0 0
0 0 0 0 0 0 0 0 -162 -295 -419 0 0 0 0 -720 -698 -757 -207 -595 -194 -28 -581 -361 -358 -402 -574 -513 -524 -419 -340 -232 -152 -95 -220 -231 -187 -232 0 0 0 0 0 0
-470 0 0 -260 0 0 0 -464 -405 -265 -468 -591 -317 0 0 -789 -782 -776 -880 -310 -571 -330 -314 -439 -314 -463 -139 -613 -542 -532 -412 -295 -169 -124 -201 -184 -168 -203 -280 -220 -118 0 0 0
0 0 0 0 0 0 -290 -313 -263 -151 -144 -555 -588 -688 -718 -700 -674 0 0 -570 -426 -393 -493 -413 -374 -567 -724 -666 -591 -359 -285 -199 -182 -159 -214 -212 -132 -123 -203 -96 -154 0 0 0
0 0 0 0 -147 -102 0 -378 -389 -120 -109 -489 -600 -594 -582 -628 -275 -440 -639 -389 -426 -614 -617 -501 -507 -590 -639 -689 -568 -409 -267 -233 -241 -177 -132 -129 -174 -256 -171 -175 -182 0 0 0
0 0 0 0 0 -30 0 -246 -342 -82 -5 -462 -510 -521 -542 -538 0 -374 -409 -472 -539 -382 -57 -745 -614 0 -406 -606 -528 -407 -196 0 0 0 0 0 0 -133 -156 -159 0 0 0 0
0 0 0 0 0 0 -373 -364 -97 0 0 -572 -501 -579 -713 -676 -482 -446 -448 -489 0 0 0 0 0 0 0 0 0 0 0 0 0 0 0 0 0 0 -171 0 0 0 0 0
0 0 0 0 0 -366 -327 -295 -360 -687 -454 -549 -536 -713 -588 -456 -420 -465 -536 -63 0 0 0 0 0 0 0 0 0 0 0 0 0 0 0 0 0 0 0 0 0 0 0 0
0 0 -48 -209 -269 -211 -349 -481 -414 -324 -279 -451 -598 -503 -545 -451 -433 -508 0 0 0 0 0 0 0 0 0 0 0 0 0 0 0 0 0 0 0 0 0 0 0 0 0 0
0 0 -264 -132 -316 -285 -344 -416 -455 -282 -272 -301 -338 -386 -421 -397 -432 0 0 0 0 0 0 0 0 0 0 0 0 0 0 0 0 0 0 0 0 0 0 0 0 0 0 0
0 0 -99 -110 -105 -320 -328 -176 -302 -290 -192 -220 -277 -311 -331 -402 -430 -527 0 0 0 0 0 0 0 0 0 0 0 0 0 0 0 0 0 0 0 0 0 0 0 0 0 0
Wind_Speed
5 6 3 3 2 4 2 2 4 6 4 2 3 3 5 8 7 10 9 8 8 8 5 9 10 9 8 9 10 8 6 4 3 2 3 2 1 1 1 1 5 4 3 5
7 2 5 4 4 2 1 2 4 6 6 2 4 2 2 10 14 16 15 11 8 6 7 8 11 8 9 10 8 5 5 4 4 3 3 2 3 0 1 2 4 1 5 4
5 3 3 3 2 1 2 4 2 4 5 3 2 5 5 3 6 5 5 5 6 10 9 9 11 10 8 9 8 6 4 4 5 4 2 2 2 2 2 1 2 4 5 4
4 5 1 2 4 6 1 5 2 0 4 1 5 4 6 2 9 5 8 10 9 9 6 8 11 10 10 7 5 5 5 4 5 5 3 4 2 3 1 1 2 3 4 3
5 3 1 3 4 7 7 3 3 3 4 3 6 5 9 6 7 6 3 6 8 10 11 12 11 10 7 6 6 4 5 4 4 4 5 4 2 1 2 2 3 2 3 4
6 3 3 6 1 3 7 6 9 6 3 5 4 3 7 3 5 7 1 5 9 8 7 7 9 10 7 7 4 5 5 5 5 4 6 7 6 4 4 2 3 2 2 3
3 3 4 3 3 2 6 7 4 5 6 6 2 2 9 8 5 6 7 9 6 6 9 10 9 9 9 8 6 5 7 7 6 4 4 5 7 6 5 3 2 3 3 3
5 4 4 3 5 7 3 7 8 5 3 5 3 2 7 6 8 8 5 7 7 7 7 9 10 9 8 7 7 6 7 6 6 6 4 4 6 5 3 3 3 3 3 3
5 5 4 3 3 7 4 3 4 10 4 2 3 6 9 5 7 8 4 6 10 8 10 13 11 9 8 10 9 8 7 6 6 4 5 7 6 7 5 4 3 2 3 3
4 1 2 3 4 4 4 6 4 4 4 3 5 5 6 4 6 8 4 5 5 2 6 8 7 8 7 6 8 7 6 5 5 6 4 5 6 6 5 4 5 4 4 4
6 3 5 2 1 6 2 3 8 7 4 7 2 8 8 10 5 1 4 0 2 5 5 5 6 5 6 5 6 5 6 6 5 5 1 7 6 6 5 5 4 5 5 5
7 5 4 9 3 1 2 5 6 7 4 1 3 8 1 3 3 4 5 3 3 3 5 5 7 6 7 4 5 7 8 7 7 4 4 7 5 6 6 4 5 5 6 5
8 0 2 10 7 3 5 3 5 6 4 5 6 8 1 2 1 2 1 4 4 5 5 1 5 6 8 5 5 6 7 8 9 9 7 5 5 5 5 6 5 5 5 5
10 4 8 8 8 5 4 4 4 6 5 5 6 5 6 5 7 6 3 5 6 6 3 4 4 5 6 6 6 5 5 7 8 4 7 7 7 7 5 6 5 5 4 5
5 7 5 3 5 5 6 7 6 4 7 6 4 7 9 6 7 6 6 1 3 5 2 3 5 5 7 6 5 3 3 4 3 5 6 5 6 5 5 5 5 5 5 4
3 3 4 2 2 5 4 2 4 3 5 3 2 8 7 2 7 6 5 2 3 4 1 5 5 4 5 7 6 6 2 5 4 5 6 5 6 6 5 4 5 5 5 4
4 5 3 3 3 3 3 5 3 3 1 6 6 9 1 2 2 5 6 5 1 4 5 3 8 8 4 6 5 5 9 5 4 4 7 7 6 7 7 5 3 4 4 3
5 4 3 3 3 4 4 3 4 4 3 3 7 6 1 1 3 5 2 3 3 3 3 1 6 6 8 7 6 5 6 6 4 6 8 8 7 8 9 6 3 3 3 4
5 6 5 5 1 4 2 3 5 3 3 6 4 3 1 3 3 7 4 4 4 7 7 5 7 7 8 9 8 5 6 7 8 11 12 13 10 6 9 6 5 3 4 3
6 7 6 2 3 4 6 2 2 3 5 6 4 5 3 2 5 3 6 6 7 8 5 5 4 2 3 4 8 8 6 5 3 3 4 3 9 10 9 10 10 5 5 5
3 5 4 2 2 7 5 3 1 8 9 5 8 6 6 5 4 3 4 4 5 5 6 7 8 7 5 2 5 5 6 7 4 4 4 4 4 1 6 10 8 7 7 7
3 5 3 3 3 6 6 4 2 5 4 4 1 4 9 7 8 8 6 4 3 3 6 7 7 7 6 4 5 6 9 7 6 4 4 3 3 3 5 8 9 10 8 8
2 5 4 6 6 3 3 4 5 2 2 3 6 6 8 8 4 8 7 5 3 4 6 6 7 5 6 7 5 6 5 5 5 6 4 2 1 3 4 6 7 8 8 6
3 1 2 2 3 4 6 7 5 4 2 2 4 3 5 9 7 7 6 5 4 4 5 5 6 6 6 6 6 5 4 4 4 5 3 3 5 4 6 5 6 7 7 6
4 2 2 3 5 4 4 3 6 6 6 8 8 6 9 10 7 7 6 6 5 4 4 4 5 4 5 4 5 5 3 4 5 4 5 5 4 5 7 7 5 6 4 4
2 4 2 4 4 2 3 5 6 6 5 6 10 8 6 7 7 6 5 7 7 7 5 5 3 5 4 4 4 4 4 3 4 5 4 3 4 4 5 6 8 16 11 9
Wind_Direction
7 60 169 199 178 136 149 227 263 266 279 231 202 84 226 165 182 201 207 197 196 213 167 135 131 151 154 159 175 190 187 188 122 118 112 124 228 252 285 305 289 295 105 95
18 265 212 182 183 123 245 257 270 288 332 119 9 57 294 172 216 207 199 198 191 155 170 137 126 147 179 169 180 165 195 172 105 105 165 155 134 254 270 349 279 16 63 73
153 236 78 185 169 197 223 206 224 219 345 39 59 352 355 278 310 264 198 168 182 190 190 145 141 156 170 184 180 172 200 156 125 138 116 86 97 106 37 321 342 28 65 69
223 255 230 308 237 142 253 211 160 34 60 263 28 276 302 245 277 292 170 179 189 180 172 150 152 158 176 185 162 174 154 158 135 161 143 120 113 132 181 98 79 53 48 52
244 191 359 337 216 164 215 111 60 67 83 66 3 81 267 343 347 342 225 191 186 192 176 181 150 155 158 155 196 153 135 153 159 153 132 113 123 133 120 106 94 44 17 25
234 275 243 212 22 160 136 74 49 52 71 34 290 125 294 312 274 310 178 197 190 182 120 104 113 143 151 168 178 124 142 177 175 157 152 146 106 121 123 121 72 32 355 9
304 226 269 199 123 70 76 60 3 5 15 207 313 37 239 273 249 247 232 206 173 137 145 138 140 145 153 166 155 146 165 189 178 185 146 111 107 105 109 108 95 55 20 1
147 318 196 183 180 168 97 141 148 178 187 259 310 284 268 259 307 287 206 145 147 163 151 151 161 165 152 156 149 184 171 203 185 188 131 93 109 108 85 84 71 56 48 19
140 270 289 222 161 125 181 117 166 104 9 40 281 289 314 329 342 10 31 150 180 166 167 172 177 152 164 164 163 185 177 207 188 204 143 122 114 109 112 102 85 68 62 28
216 57 264 287 91 28 156 150 82 14 134 220 294 278 239 280 281 24 13 17 328 264 190 181 157 157 158 142 154 169 172 186 146 126 123 118 114 109 114 102 85 72 54 41
133 110 283 334 138 180 139 114 56 109 111 155 188 268 215 207 140 104 310 357 295 251 241 189 135 119 120 140 158 141 108 94 61 49 100 112 108 100 92 82 79 73 64 39
193 151 193 234 256 201 195 139 126 119 223 110 149 268 265 241 186 141 235 200 160 233 214 164 141 135 121 143 117 111 106 102 87 68 120 97 111 100 88 88 83 79 75 52
183 204 40 340 4 25 84 76 108 102 84 189 133 261 125 321 280 218 274 20 359 340 314 199 146 129 135 137 141 130 129 142 145 169 128 136 130 115 115 110 102 87 88 74
102 126 157 188 200 148 126 156 174 120 111 175 220 283 289 205 213 208 164 1 336 327 310 140 121 141 135 143 143 136 144 179 160 133 150 163 152 141 142 125 122 108 99 90
107 173 175 250 207 152 162 174 175 139 158 137 228 211 263 238 192 147 142 174 322 350 58 147 154 165 148 136 159 149 169 213 181 154 160 161 135 126 114 118 112 115 103 93
14 185 143 65 114 151 134 157 170 107 119 80 127 266 228 307 125 147 143 153 315 310 245 175 156 159 143 143 175 135 110 223 191 178 157 126 119 103 100 107 119 119 113 101
83 123 82 178 3 91 32 194 188 138 95 139 174 233 48 269 118 96 115 134 138 319 299 229 170 169 179 158 153 158 163 172 181 148 123 126 115 119 115 114 137 122 110 103
118 85 63 124 56 184 243 355 222 140 190 228 287 293 224 48 71 32 145 140 57 2 39 323 189 166 171 173 136 160 153 149 152 134 133 140 158 171 128 139 148 158 144 130
55 106 74 110 164 281 2 210 149 164 265 182 227 287 72 69 83 16 12 64 24 357 344 278 214 177 181 163 138 169 154 153 163 175 160 162 170 174 139 158 152 183 137 133
55 65 103 93 109 191 249 311 158 119 323 172 181 217 173 58 67 293 319 21 7 25 345 343 67 139 155 107 131 164 167 144 165 173 137 184 173 171 168 170 172 149 144 138
43 38 121 126 132 291 282 317 233 87 231 183 182 202 127 98 164 190 82 45 14 350 12 34 53 59 37 134 157 145 92 76 55 57 71 48 354 170 177 172 163 135 130 118
108 119 188 103 97 258 6 325 194 227 309 290 90 75 104 125 120 111 98 101 100 56 51 53 59 40 13 68 97 81 85 95 88 63 56 40 7 306 181 176 154 139 133 128
59 173 193 173 216 274 302 275 302 255 307 4 119 129 125 119 118 132 129 115 104 91 73 60 72 55 30 33 72 103 93 96 110 103 88 37 49 346 163 143 140 130 129 130
336 137 115 66 281 326 326 311 328 326 71 125 127 129 111 119 127 126 120 120 104 87 83 78 79 71 49 30 54 85 92 107 98 90 83 64 58 37 58 82 128 130 134 140
215 11 177 269 286 339 274 320 321 10 72 66 60 71 91 107 125 142 142 137 141 123 97 94 100 101 98 77 56 58 70 92 100 95 80 69 68 74 82 63 55 96 71 135
196 184 158 236 230 135 284 331 344 29 52 98 99 79 93 132 149 142 158 171 164 151 159 147 136 121 112 122 121 131 111 102 115 108 95 87 83 80 88 98 84 47 61 71